#datetime,building,power
2022-11-14T00:00:00,atd,30.41
2022-11-14T00:01:00,atd,22.93
2022-11-14T00:02:00,atd,25.08
2022-11-14T00:03:00,atd,20.93
2022-11-14T00:04:00,atd,23.01
2022-11-14T00:05:00,atd,24.09
2022-11-14T00:06:00,atd,24.85
2022-11-14T00:07:00,atd,26.48
2022-11-14T00:08:00,atd,23.57
2022-11-14T00:09:00,atd,25.06
2022-11-14T00:10:00,atd,26.11
2022-11-14T00:11:00,atd,25.28
2022-11-14T00:12:00,atd,23.86
2022-11-14T00:13:00,atd,24.51
2022-11-14T00:14:00,atd,23.55
2022-11-14T00:15:00,atd,21.27
2022-11-14T00:16:00,atd,19.44
2022-11-14T00:17:00,atd,20.10
2022-11-14T00:18:00,atd,31.49
2022-11-14T00:19:00,atd,20.04
2022-11-14T00:20:00,atd,19.30
2022-11-14T00:21:00,atd,19.32
2022-11-14T00:22:00,atd,21.38
2022-11-14T00:23:00,atd,23.24
2022-11-14T00:24:00,atd,23.94
2022-11-14T00:25:00,atd,24.16
2022-11-14T00:26:00,atd,23.38
2022-11-14T00:27:00,atd,23.35
2022-11-14T00:28:00,atd,20.56
2022-11-14T00:29:00,atd,19.30
2022-11-14T00:30:00,atd,21.47
2022-11-14T00:31:00,atd,18.53
2022-11-14T00:32:00,atd,18.04
2022-11-14T00:33:00,atd,19.69
2022-11-14T00:34:00,atd,17.40
2022-11-14T00:35:00,atd,17.34
2022-11-14T00:36:00,atd,19.38
2022-11-14T00:37:00,atd,32.31
2022-11-14T00:38:00,atd,22.89
2022-11-14T00:39:00,atd,20.68
2022-11-14T00:40:00,atd,22.84
2022-11-14T00:41:00,atd,28.05
2022-11-14T00:42:00,atd,27.64
2022-11-14T00:43:00,atd,29.79
2022-11-14T00:44:00,atd,27.74
2022-11-14T00:45:00,atd,26.19
2022-11-14T00:46:00,atd,23.86
2022-11-14T00:47:00,atd,24.84
2022-11-14T00:48:00,atd,22.96
2022-11-14T00:49:00,atd,22.32
2022-11-14T00:50:00,atd,18.08
2022-11-14T00:51:00,atd,21.44
2022-11-14T00:52:00,atd,20.70
2022-11-14T00:53:00,atd,20.79
2022-11-14T00:54:00,atd,19.39
2022-11-14T00:55:00,atd,19.14
2022-11-14T00:56:00,atd,33.90
2022-11-14T00:57:00,atd,24.99
2022-11-14T00:58:00,atd,24.24
2022-11-14T00:59:00,atd,21.76
2022-11-14T01:00:00,atd,21.72
2022-11-14T01:01:00,atd,22.22
2022-11-14T01:02:00,atd,21.52
2022-11-14T01:03:00,atd,18.92
2022-11-14T01:04:00,atd,19.01
2022-11-14T01:05:00,atd,18.33
2022-11-14T01:06:00,atd,18.78
2022-11-14T01:07:00,atd,21.17
2022-11-14T01:08:00,atd,20.32
2022-11-14T01:09:00,atd,20.53
2022-11-14T01:10:00,atd,20.58
2022-11-14T01:11:00,atd,20.12
2022-11-14T01:12:00,atd,18.95
2022-11-14T01:13:00,atd,20.04
2022-11-14T01:14:00,atd,22.13
2022-11-14T01:15:00,atd,21.64
2022-11-14T01:16:00,atd,33.61
2022-11-14T01:17:00,atd,22.98
2022-11-14T01:18:00,atd,20.80
2022-11-14T01:19:00,atd,23.35
2022-11-14T01:20:00,atd,20.31
2022-11-14T01:21:00,atd,22.11
2022-11-14T01:22:00,atd,19.64
2022-11-14T01:23:00,atd,21.21
2022-11-14T01:24:00,atd,19.85
2022-11-14T01:25:00,atd,19.56
2022-11-14T01:26:00,atd,17.77
2022-11-14T01:27:00,atd,20.36
2022-11-14T01:28:00,atd,21.94
2022-11-14T01:29:00,atd,20.34
2022-11-14T01:30:00,atd,21.59
2022-11-14T01:31:00,atd,22.38
2022-11-14T01:32:00,atd,21.53
2022-11-14T01:33:00,atd,27.33
2022-11-14T01:34:00,atd,25.03
2022-11-14T01:35:00,atd,23.10
2022-11-14T01:36:00,atd,23.05
2022-11-14T01:37:00,atd,24.79
2022-11-14T01:38:00,atd,19.92
2022-11-14T01:39:00,atd,21.74
2022-11-14T01:40:00,atd,21.83
2022-11-14T01:41:00,atd,24.02
2022-11-14T01:42:00,atd,23.04
2022-11-14T01:43:00,atd,23.27
2022-11-14T01:44:00,atd,21.31
2022-11-14T01:45:00,atd,20.34
2022-11-14T01:46:00,atd,18.22
2022-11-14T01:47:00,atd,19.30
2022-11-14T01:48:00,atd,18.12
2022-11-14T01:49:00,atd,22.61
2022-11-14T01:50:00,atd,19.48
2022-11-14T01:51:00,atd,26.84
2022-11-14T01:52:00,atd,25.69
2022-11-14T01:53:00,atd,29.69
2022-11-14T01:54:00,atd,22.48
2022-11-14T01:55:00,atd,19.14
2022-11-14T01:56:00,atd,26.78
2022-11-14T01:57:00,atd,25.31
2022-11-14T01:58:00,atd,25.89
2022-11-14T01:59:00,atd,24.47
2022-11-14T02:00:00,atd,23.49
2022-11-14T02:01:00,atd,25.01
2022-11-14T02:02:00,atd,23.44
2022-11-14T02:03:00,atd,23.05
2022-11-14T02:04:00,atd,21.85
2022-11-14T02:05:00,atd,22.20
2022-11-14T02:06:00,atd,23.33
2022-11-14T02:07:00,atd,23.72
2022-11-14T02:08:00,atd,23.41
2022-11-14T02:09:00,atd,21.96
2022-11-14T02:10:00,atd,21.08
2022-11-14T02:11:00,atd,20.95
2022-11-14T02:12:00,atd,21.36
2022-11-14T02:13:00,atd,17.26
2022-11-14T02:14:00,atd,17.59
2022-11-14T02:15:00,atd,17.81
2022-11-14T02:16:00,atd,19.75
2022-11-14T02:17:00,atd,17.45
2022-11-14T02:18:00,atd,22.81
2022-11-14T02:19:00,atd,21.43
2022-11-14T02:20:00,atd,19.89
2022-11-14T02:21:00,atd,19.40
2022-11-14T02:22:00,atd,16.70
2022-11-14T02:23:00,atd,19.01
2022-11-14T02:24:00,atd,21.08
2022-11-14T02:25:00,atd,24.64
2022-11-14T02:26:00,atd,18.61
2022-11-14T02:27:00,atd,24.62
2022-11-14T02:28:00,atd,22.59
2022-11-14T02:29:00,atd,21.69
2022-11-14T02:30:00,atd,22.50
2022-11-14T02:31:00,atd,19.80
2022-11-14T02:32:00,atd,27.74
2022-11-14T02:33:00,atd,31.51
2022-11-14T02:34:00,atd,25.93
2022-11-14T02:35:00,atd,29.15
2022-11-14T02:36:00,atd,18.86
2022-11-14T02:37:00,atd,17.34
2022-11-14T02:38:00,atd,17.94
2022-11-14T02:39:00,atd,19.44
2022-11-14T02:40:00,atd,18.56
2022-11-14T02:41:00,atd,24.58
2022-11-14T02:42:00,atd,21.46
2022-11-14T02:43:00,atd,23.24
2022-11-14T02:44:00,atd,23.37
2022-11-14T02:45:00,atd,24.33
2022-11-14T02:46:00,atd,20.66
2022-11-14T02:47:00,atd,21.56
2022-11-14T02:48:00,atd,20.96
2022-11-14T02:49:00,atd,18.95
2022-11-14T02:50:00,atd,17.38
2022-11-14T02:51:00,atd,19.83
2022-11-14T02:52:00,atd,18.05
2022-11-14T02:53:00,atd,18.85
2022-11-14T02:54:00,atd,19.61
2022-11-14T02:55:00,atd,18.87
2022-11-14T02:56:00,atd,20.46
2022-11-14T02:57:00,atd,21.33
2022-11-14T02:58:00,atd,19.20
2022-11-14T02:59:00,atd,23.52
2022-11-14T03:00:00,atd,22.56
2022-11-14T03:01:00,atd,24.09
2022-11-14T03:02:00,atd,31.94
2022-11-14T03:03:00,atd,24.70
2022-11-14T03:04:00,atd,22.64
2022-11-14T03:05:00,atd,25.09
2022-11-14T03:06:00,atd,25.22
2022-11-14T03:07:00,atd,24.75
2022-11-14T03:08:00,atd,23.64
2022-11-14T03:09:00,atd,22.86
2022-11-14T03:10:00,atd,25.58
2022-11-14T03:11:00,atd,23.52
2022-11-14T03:12:00,atd,24.87
2022-11-14T03:13:00,atd,24.75
2022-11-14T03:14:00,atd,17.28
2022-11-14T03:15:00,atd,19.57
2022-11-14T03:16:00,atd,18.76
2022-11-14T03:17:00,atd,20.30
2022-11-14T03:18:00,atd,19.46
2022-11-14T03:19:00,atd,22.25
2022-11-14T03:20:00,atd,22.67
2022-11-14T03:21:00,atd,20.65
2022-11-14T03:22:00,atd,21.31
2022-11-14T03:23:00,atd,22.46
2022-11-14T03:24:00,atd,20.77
2022-11-14T03:25:00,atd,21.51
2022-11-14T03:26:00,atd,22.01
2022-11-14T03:27:00,atd,18.96
2022-11-14T03:28:00,atd,19.59
2022-11-14T03:29:00,atd,18.94
2022-11-14T03:30:00,atd,18.01
2022-11-14T03:31:00,atd,20.26
2022-11-14T03:32:00,atd,18.72
2022-11-14T03:33:00,atd,20.94
2022-11-14T03:34:00,atd,20.78
2022-11-14T03:35:00,atd,21.06
2022-11-14T03:36:00,atd,21.52
2022-11-14T03:37:00,atd,21.14
2022-11-14T03:38:00,atd,20.97
2022-11-14T03:39:00,atd,20.22
2022-11-14T03:40:00,atd,33.40
2022-11-14T03:41:00,atd,33.70
2022-11-14T03:42:00,atd,37.02
2022-11-14T03:43:00,atd,32.18
2022-11-14T03:44:00,atd,24.60
2022-11-14T03:45:00,atd,25.11
2022-11-14T03:46:00,atd,26.86
2022-11-14T03:47:00,atd,26.13
2022-11-14T03:48:00,atd,17.40
2022-11-14T03:49:00,atd,19.75
2022-11-14T03:50:00,atd,17.87
2022-11-14T03:51:00,atd,23.32
2022-11-14T03:52:00,atd,21.70
2022-11-14T03:53:00,atd,21.90
2022-11-14T03:54:00,atd,20.70
2022-11-14T03:55:00,atd,19.26
2022-11-14T03:56:00,atd,17.82
2022-11-14T03:57:00,atd,15.78
2022-11-14T03:58:00,atd,20.62
2022-11-14T03:59:00,atd,19.21
2022-11-14T04:00:00,atd,19.77
2022-11-14T04:01:00,atd,18.95
2022-11-14T04:02:00,atd,20.77
2022-11-14T04:03:00,atd,21.55
2022-11-14T04:04:00,atd,19.96
2022-11-14T04:05:00,atd,20.25
2022-11-14T04:06:00,atd,16.27
2022-11-14T04:07:00,atd,19.06
2022-11-14T04:08:00,atd,18.05
2022-11-14T04:09:00,atd,18.75
2022-11-14T04:10:00,atd,21.04
2022-11-14T04:11:00,atd,21.90
2022-11-14T04:12:00,atd,21.71
2022-11-14T04:13:00,atd,19.89
2022-11-14T04:14:00,atd,16.89
2022-11-14T04:15:00,atd,20.59
2022-11-14T04:16:00,atd,19.64
2022-11-14T04:17:00,atd,17.81
2022-11-14T04:18:00,atd,20.11
2022-11-14T04:19:00,atd,20.88
2022-11-14T04:20:00,atd,17.70
2022-11-14T04:21:00,atd,22.44
2022-11-14T04:22:00,atd,21.84
2022-11-14T04:23:00,atd,21.82
2022-11-14T04:24:00,atd,18.36
2022-11-14T04:25:00,atd,21.21
2022-11-14T04:26:00,atd,23.58
2022-11-14T04:27:00,atd,22.42
2022-11-14T04:28:00,atd,20.91
2022-11-14T04:29:00,atd,25.76
2022-11-14T04:30:00,atd,27.59
2022-11-14T04:31:00,atd,23.48
2022-11-14T04:32:00,atd,25.65
2022-11-14T04:33:00,atd,19.05
2022-11-14T04:34:00,atd,25.67
2022-11-14T04:35:00,atd,22.05
2022-11-14T04:36:00,atd,19.04
2022-11-14T04:37:00,atd,17.70
2022-11-14T04:38:00,atd,20.93
2022-11-14T04:39:00,atd,19.33
2022-11-14T04:40:00,atd,18.78
2022-11-14T04:41:00,atd,20.45
2022-11-14T04:42:00,atd,18.87
2022-11-14T04:43:00,atd,24.03
2022-11-14T04:44:00,atd,23.61
2022-11-14T04:45:00,atd,25.35
2022-11-14T04:46:00,atd,26.10
2022-11-14T04:47:00,atd,23.36
2022-11-14T04:48:00,atd,25.73
2022-11-14T04:49:00,atd,21.67
2022-11-14T04:50:00,atd,20.80
2022-11-14T04:51:00,atd,20.04
2022-11-14T04:52:00,atd,21.38
2022-11-14T04:53:00,atd,31.70
2022-11-14T04:54:00,atd,19.52
2022-11-14T04:55:00,atd,21.35
2022-11-14T04:56:00,atd,21.56
2022-11-14T04:57:00,atd,18.14
2022-11-14T04:58:00,atd,17.71
2022-11-14T04:59:00,atd,19.04
2022-11-14T05:00:00,atd,20.08
2022-11-14T05:01:00,atd,18.18
2022-11-14T05:02:00,atd,23.50
2022-11-14T05:03:00,atd,24.05
2022-11-14T05:04:00,atd,20.14
2022-11-14T05:05:00,atd,23.43
2022-11-14T05:06:00,atd,21.76
2022-11-14T05:07:00,atd,22.03
2022-11-14T05:08:00,atd,20.96
2022-11-14T05:09:00,atd,16.29
2022-11-14T05:10:00,atd,18.22
2022-11-14T05:11:00,atd,17.66
2022-11-14T05:12:00,atd,18.52
2022-11-14T05:13:00,atd,18.07
2022-11-14T05:14:00,atd,18.13
2022-11-14T05:15:00,atd,19.18
2022-11-14T05:16:00,atd,20.92
2022-11-14T05:17:00,atd,23.14
2022-11-14T05:18:00,atd,21.23
2022-11-14T05:19:00,atd,18.87
2022-11-14T05:20:00,atd,20.34
2022-11-14T05:21:00,atd,25.69
2022-11-14T05:22:00,atd,21.60
2022-11-14T05:23:00,atd,23.60
2022-11-14T05:24:00,atd,24.64
2022-11-14T05:25:00,atd,23.07
2022-11-14T05:26:00,atd,24.69
2022-11-14T05:27:00,atd,21.83
2022-11-14T05:28:00,atd,18.32
2022-11-14T05:29:00,atd,19.20
2022-11-14T05:30:00,atd,16.84
2022-11-14T05:31:00,atd,19.80
2022-11-14T05:32:00,atd,29.19
2022-11-14T05:33:00,atd,20.47
2022-11-14T05:34:00,atd,19.58
2022-11-14T05:35:00,atd,19.41
2022-11-14T05:36:00,atd,22.98
2022-11-14T05:37:00,atd,26.55
2022-11-14T05:38:00,atd,24.59
2022-11-14T05:39:00,atd,27.57
2022-11-14T05:40:00,atd,26.16
2022-11-14T05:41:00,atd,22.69
2022-11-14T05:42:00,atd,20.50
2022-11-14T05:43:00,atd,22.18
2022-11-14T05:44:00,atd,20.38
2022-11-14T05:45:00,atd,20.79
2022-11-14T05:46:00,atd,21.55
2022-11-14T05:47:00,atd,22.28
2022-11-14T05:48:00,atd,21.59
2022-11-14T05:49:00,atd,19.79
2022-11-14T05:50:00,atd,21.07
2022-11-14T05:51:00,atd,20.59
2022-11-14T05:52:00,atd,32.16
2022-11-14T05:53:00,atd,19.30
2022-11-14T05:54:00,atd,20.03
2022-11-14T05:55:00,atd,22.32
2022-11-14T05:56:00,atd,23.96
2022-11-14T05:57:00,atd,27.10
2022-11-14T05:58:00,atd,23.44
2022-11-14T05:59:00,atd,21.15
2022-11-14T06:00:00,atd,21.23
2022-11-14T06:01:00,atd,28.83
2022-11-14T06:02:00,atd,39.30
2022-11-14T06:03:00,atd,39.67
2022-11-14T06:04:00,atd,38.62
2022-11-14T06:05:00,atd,33.81
2022-11-14T06:06:00,atd,28.83
2022-11-14T06:07:00,atd,29.80
2022-11-14T06:08:00,atd,29.71
2022-11-14T06:09:00,atd,30.25
2022-11-14T06:10:00,atd,33.51
2022-11-14T06:11:00,atd,35.66
2022-11-14T06:12:00,atd,29.02
2022-11-14T06:13:00,atd,28.14
2022-11-14T06:14:00,atd,31.19
2022-11-14T06:15:00,atd,31.15
2022-11-14T06:16:00,atd,28.97
2022-11-14T06:17:00,atd,29.22
2022-11-14T06:18:00,atd,29.37
2022-11-14T06:19:00,atd,28.26
2022-11-14T06:20:00,atd,30.97
2022-11-14T06:21:00,atd,30.07
2022-11-14T06:22:00,atd,33.36
2022-11-14T06:23:00,atd,35.97
2022-11-14T06:24:00,atd,33.38
2022-11-14T06:25:00,atd,32.44
2022-11-14T06:26:00,atd,47.11
2022-11-14T06:27:00,atd,46.70
2022-11-14T06:28:00,atd,45.73
2022-11-14T06:29:00,atd,50.70
2022-11-14T06:30:00,atd,36.05
2022-11-14T06:31:00,atd,34.59
2022-11-14T06:32:00,atd,37.19
2022-11-14T06:33:00,atd,34.55
2022-11-14T06:34:00,atd,45.76
2022-11-14T06:35:00,atd,33.60
2022-11-14T06:36:00,atd,34.89
2022-11-14T06:37:00,atd,37.45
2022-11-14T06:38:00,atd,36.69
2022-11-14T06:39:00,atd,35.34
2022-11-14T06:40:00,atd,37.38
2022-11-14T06:41:00,atd,36.43
2022-11-14T06:42:00,atd,36.34
2022-11-14T06:43:00,atd,36.24
2022-11-14T06:44:00,atd,32.25
2022-11-14T06:45:00,atd,30.16
2022-11-14T06:46:00,atd,29.20
2022-11-14T06:47:00,atd,40.48
2022-11-14T06:48:00,atd,30.11
2022-11-14T06:49:00,atd,29.46
2022-11-14T06:50:00,atd,31.44
2022-11-14T06:51:00,atd,29.67
2022-11-14T06:52:00,atd,35.10
2022-11-14T06:53:00,atd,35.02
2022-11-14T06:54:00,atd,29.72
2022-11-14T06:55:00,atd,34.49
2022-11-14T06:56:00,atd,33.29
2022-11-14T06:57:00,atd,32.03
2022-11-14T06:58:00,atd,31.96
2022-11-14T06:59:00,atd,33.16
2022-11-14T07:00:00,atd,30.24
2022-11-14T07:01:00,atd,29.56
2022-11-14T07:02:00,atd,35.65
2022-11-14T07:03:00,atd,32.92
2022-11-14T07:04:00,atd,42.11
2022-11-14T07:05:00,atd,26.89
2022-11-14T07:06:00,atd,26.74
2022-11-14T07:07:00,atd,28.71
2022-11-14T07:08:00,atd,27.62
2022-11-14T07:09:00,atd,32.05
2022-11-14T07:10:00,atd,32.33
2022-11-14T07:11:00,atd,27.55
2022-11-14T07:12:00,atd,30.76
2022-11-14T07:13:00,atd,33.76
2022-11-14T07:14:00,atd,36.63
2022-11-14T07:15:00,atd,33.06
2022-11-14T07:16:00,atd,33.97
2022-11-14T07:17:00,atd,35.19
2022-11-14T07:18:00,atd,29.53
2022-11-14T07:19:00,atd,27.22
2022-11-14T07:20:00,atd,28.74
2022-11-14T07:21:00,atd,38.15
2022-11-14T07:22:00,atd,27.58
2022-11-14T07:23:00,atd,28.34
2022-11-14T07:24:00,atd,27.70
2022-11-14T07:25:00,atd,30.01
2022-11-14T07:26:00,atd,32.68
2022-11-14T07:27:00,atd,27.94
2022-11-14T07:28:00,atd,30.41
2022-11-14T07:29:00,atd,34.45
2022-11-14T07:30:00,atd,28.48
2022-11-14T07:31:00,atd,29.09
2022-11-14T07:32:00,atd,33.35
2022-11-14T07:33:00,atd,33.66
2022-11-14T07:34:00,atd,32.45
2022-11-14T07:35:00,atd,35.34
2022-11-14T07:36:00,atd,34.61
2022-11-14T07:37:00,atd,29.66
2022-11-14T07:38:00,atd,28.31
2022-11-14T07:39:00,atd,40.28
2022-11-14T07:40:00,atd,27.71
2022-11-14T07:41:00,atd,29.30
2022-11-14T07:42:00,atd,31.09
2022-11-14T07:43:00,atd,29.36
2022-11-14T07:44:00,atd,31.02
2022-11-14T07:45:00,atd,28.13
2022-11-14T07:46:00,atd,32.32
2022-11-14T07:47:00,atd,29.89
2022-11-14T07:48:00,atd,29.91
2022-11-14T07:49:00,atd,29.53
2022-11-14T07:50:00,atd,32.84
2022-11-14T07:51:00,atd,34.14
2022-11-14T07:52:00,atd,34.46
2022-11-14T07:53:00,atd,32.19
2022-11-14T07:54:00,atd,31.80
2022-11-14T07:55:00,atd,33.25
2022-11-14T07:56:00,atd,40.20
2022-11-14T07:57:00,atd,31.83
2022-11-14T07:58:00,atd,28.97
2022-11-14T07:59:00,atd,30.94
2022-11-14T08:00:00,atd,36.84
2022-11-14T08:01:00,atd,35.06
2022-11-14T08:02:00,atd,37.97
2022-11-14T08:03:00,atd,39.33
2022-11-14T08:04:00,atd,34.70
2022-11-14T08:05:00,atd,38.14
2022-11-14T08:06:00,atd,40.17
2022-11-14T08:07:00,atd,39.67
2022-11-14T08:08:00,atd,37.25
2022-11-14T08:09:00,atd,42.20
2022-11-14T08:10:00,atd,39.67
2022-11-14T08:11:00,atd,39.46
2022-11-14T08:12:00,atd,43.22
2022-11-14T08:13:00,atd,39.86
2022-11-14T08:14:00,atd,39.90
2022-11-14T08:15:00,atd,44.25
2022-11-14T08:16:00,atd,42.55
2022-11-14T08:17:00,atd,43.76
2022-11-14T08:18:00,atd,40.07
2022-11-14T08:19:00,atd,39.38
2022-11-14T08:20:00,atd,41.46
2022-11-14T08:21:00,atd,43.68
2022-11-14T08:22:00,atd,43.74
2022-11-14T08:23:00,atd,48.10
2022-11-14T08:24:00,atd,46.60
2022-11-14T08:25:00,atd,44.15
2022-11-14T08:26:00,atd,48.62
2022-11-14T08:27:00,atd,54.10
2022-11-14T08:28:00,atd,59.85
2022-11-14T08:29:00,atd,50.95
2022-11-14T08:30:00,atd,40.00
2022-11-14T08:31:00,atd,39.54
2022-11-14T08:32:00,atd,36.89
2022-11-14T08:33:00,atd,39.35
2022-11-14T08:34:00,atd,52.43
2022-11-14T08:35:00,atd,42.59
2022-11-14T08:36:00,atd,52.21
2022-11-14T08:37:00,atd,39.74
2022-11-14T08:38:00,atd,49.87
2022-11-14T08:39:00,atd,54.06
2022-11-14T08:40:00,atd,57.80
2022-11-14T08:41:00,atd,40.61
2022-11-14T08:42:00,atd,38.03
2022-11-14T08:43:00,atd,38.02
2022-11-14T08:44:00,atd,48.48
2022-11-14T08:45:00,atd,62.75
2022-11-14T08:46:00,atd,42.73
2022-11-14T08:47:00,atd,45.32
2022-11-14T08:48:00,atd,45.45
2022-11-14T08:49:00,atd,42.86
2022-11-14T08:50:00,atd,46.10
2022-11-14T08:51:00,atd,46.71
2022-11-14T08:52:00,atd,39.03
2022-11-14T08:53:00,atd,41.56
2022-11-14T08:54:00,atd,51.14
2022-11-14T08:55:00,atd,55.61
2022-11-14T08:56:00,atd,49.21
2022-11-14T08:57:00,atd,50.07
2022-11-14T08:58:00,atd,47.25
2022-11-14T08:59:00,atd,51.22
2022-11-14T09:00:00,atd,57.70
2022-11-14T09:01:00,atd,52.86
2022-11-14T09:02:00,atd,56.01
2022-11-14T09:03:00,atd,52.65
2022-11-14T09:04:00,atd,51.33
2022-11-14T09:05:00,atd,52.70
2022-11-14T09:06:00,atd,50.36
2022-11-14T09:07:00,atd,44.31
2022-11-14T09:08:00,atd,42.63
2022-11-14T09:09:00,atd,44.65
2022-11-14T09:10:00,atd,49.19
2022-11-14T09:11:00,atd,53.55
2022-11-14T09:12:00,atd,51.31
2022-11-14T09:13:00,atd,51.21
2022-11-14T09:14:00,atd,53.06
2022-11-14T09:15:00,atd,43.13
2022-11-14T09:16:00,atd,44.75
2022-11-14T09:17:00,atd,46.62
2022-11-14T09:18:00,atd,60.32
2022-11-14T09:19:00,atd,44.20
2022-11-14T09:20:00,atd,50.20
2022-11-14T09:21:00,atd,47.86
2022-11-14T09:22:00,atd,49.69
2022-11-14T09:23:00,atd,51.61
2022-11-14T09:24:00,atd,52.10
2022-11-14T09:25:00,atd,52.98
2022-11-14T09:26:00,atd,52.82
2022-11-14T09:27:00,atd,49.77
2022-11-14T09:28:00,atd,43.71
2022-11-14T09:29:00,atd,44.85
2022-11-14T09:30:00,atd,50.47
2022-11-14T09:31:00,atd,64.45
2022-11-14T09:32:00,atd,57.60
2022-11-14T09:33:00,atd,58.86
2022-11-14T09:34:00,atd,54.91
2022-11-14T09:35:00,atd,63.75
2022-11-14T09:36:00,atd,62.47
2022-11-14T09:37:00,atd,58.89
2022-11-14T09:38:00,atd,56.15
2022-11-14T09:39:00,atd,57.54
2022-11-14T09:40:00,atd,61.89
2022-11-14T09:41:00,atd,49.96
2022-11-14T09:42:00,atd,45.33
2022-11-14T09:43:00,atd,55.80
2022-11-14T09:44:00,atd,53.25
2022-11-14T09:45:00,atd,73.62
2022-11-14T09:46:00,atd,58.04
2022-11-14T09:47:00,atd,53.35
2022-11-14T09:48:00,atd,56.01
2022-11-14T09:49:00,atd,56.92
2022-11-14T09:50:00,atd,61.89
2022-11-14T09:51:00,atd,65.76
2022-11-14T09:52:00,atd,80.33
2022-11-14T09:53:00,atd,64.45
2022-11-14T09:54:00,atd,53.85
2022-11-14T09:55:00,atd,62.44
2022-11-14T09:56:00,atd,57.16
2022-11-14T09:57:00,atd,54.77
2022-11-14T09:58:00,atd,58.34
2022-11-14T09:59:00,atd,58.29
2022-11-14T10:00:00,atd,46.64
2022-11-14T10:01:00,atd,54.83
2022-11-14T10:02:00,atd,50.10
2022-11-14T10:03:00,atd,57.35
2022-11-14T10:04:00,atd,54.79
2022-11-14T10:05:00,atd,61.82
2022-11-14T10:06:00,atd,67.35
2022-11-14T10:07:00,atd,71.23
2022-11-14T10:08:00,atd,67.55
2022-11-14T10:09:00,atd,66.29
2022-11-14T10:10:00,atd,85.02
2022-11-14T10:11:00,atd,68.14
2022-11-14T10:12:00,atd,67.15
2022-11-14T10:13:00,atd,67.72
2022-11-14T10:14:00,atd,68.83
2022-11-14T10:15:00,atd,71.21
2022-11-14T10:16:00,atd,61.33
2022-11-14T10:17:00,atd,60.25
2022-11-14T10:18:00,atd,64.56
2022-11-14T10:19:00,atd,61.68
2022-11-14T10:20:00,atd,60.30
2022-11-14T10:21:00,atd,60.98
2022-11-14T10:22:00,atd,65.66
2022-11-14T10:23:00,atd,59.94
2022-11-14T10:24:00,atd,66.30
2022-11-14T10:25:00,atd,96.99
2022-11-14T10:26:00,atd,65.90
2022-11-14T10:27:00,atd,62.57
2022-11-14T10:28:00,atd,68.43
2022-11-14T10:29:00,atd,66.18
2022-11-14T10:30:00,atd,72.54
2022-11-14T10:31:00,atd,73.00
2022-11-14T10:32:00,atd,66.69
2022-11-14T10:33:00,atd,58.41
2022-11-14T10:34:00,atd,62.54
2022-11-14T10:35:00,atd,64.32
2022-11-14T10:36:00,atd,59.45
2022-11-14T10:37:00,atd,65.62
2022-11-14T10:38:00,atd,62.33
2022-11-14T10:39:00,atd,78.68
2022-11-14T10:40:00,atd,64.77
2022-11-14T10:41:00,atd,62.80
2022-11-14T10:42:00,atd,55.64
2022-11-14T10:43:00,atd,48.51
2022-11-14T10:44:00,atd,50.71
2022-11-14T10:45:00,atd,48.43
2022-11-14T10:46:00,atd,53.00
2022-11-14T10:47:00,atd,58.01
2022-11-14T10:48:00,atd,73.59
2022-11-14T10:49:00,atd,59.07
2022-11-14T10:50:00,atd,53.81
2022-11-14T10:51:00,atd,49.13
2022-11-14T10:52:00,atd,42.37
2022-11-14T10:53:00,atd,44.53
2022-11-14T10:54:00,atd,44.88
2022-11-14T10:55:00,atd,63.10
2022-11-14T10:56:00,atd,69.59
2022-11-14T10:57:00,atd,60.38
2022-11-14T10:58:00,atd,69.50
2022-11-14T10:59:00,atd,71.92
2022-11-14T11:00:00,atd,55.66
2022-11-14T11:01:00,atd,52.35
2022-11-14T11:02:00,atd,52.30
2022-11-14T11:03:00,atd,62.04
2022-11-14T11:04:00,atd,57.65
2022-11-14T11:05:00,atd,64.87
2022-11-14T11:06:00,atd,59.51
2022-11-14T11:07:00,atd,62.55
2022-11-14T11:08:00,atd,53.46
2022-11-14T11:09:00,atd,52.67
2022-11-14T11:10:00,atd,57.43
2022-11-14T11:11:00,atd,56.33
2022-11-14T11:12:00,atd,57.11
2022-11-14T11:13:00,atd,62.10
2022-11-14T11:14:00,atd,56.50
2022-11-14T11:15:00,atd,57.66
2022-11-14T11:16:00,atd,55.04
2022-11-14T11:17:00,atd,48.85
2022-11-14T11:18:00,atd,61.24
2022-11-14T11:19:00,atd,68.68
2022-11-14T11:20:00,atd,64.58
2022-11-14T11:21:00,atd,74.31
2022-11-14T11:22:00,atd,79.37
2022-11-14T11:23:00,atd,75.05
2022-11-14T11:24:00,atd,70.44
2022-11-14T11:25:00,atd,66.72
2022-11-14T11:26:00,atd,65.78
2022-11-14T11:27:00,atd,63.34
2022-11-14T11:28:00,atd,71.85
2022-11-14T11:29:00,atd,71.19
2022-11-14T11:30:00,atd,82.47
2022-11-14T11:31:00,atd,81.15
2022-11-14T11:32:00,atd,66.61
2022-11-14T11:33:00,atd,83.14
2022-11-14T11:34:00,atd,75.59
2022-11-14T11:35:00,atd,76.31
2022-11-14T11:36:00,atd,76.93
2022-11-14T11:37:00,atd,76.57
2022-11-14T11:38:00,atd,72.65
2022-11-14T11:39:00,atd,72.40
2022-11-14T11:40:00,atd,88.11
2022-11-14T11:41:00,atd,76.88
2022-11-14T11:42:00,atd,71.90
2022-11-14T11:43:00,atd,86.25
2022-11-14T11:44:00,atd,71.00
2022-11-14T11:45:00,atd,69.35
2022-11-14T11:46:00,atd,70.45
2022-11-14T11:47:00,atd,85.74
2022-11-14T11:48:00,atd,68.43
2022-11-14T11:49:00,atd,67.95
2022-11-14T11:50:00,atd,69.07
2022-11-14T11:51:00,atd,68.70
2022-11-14T11:52:00,atd,65.20
2022-11-14T11:53:00,atd,66.06
2022-11-14T11:54:00,atd,66.01
2022-11-14T11:55:00,atd,64.45
2022-11-14T11:56:00,atd,68.42
2022-11-14T11:57:00,atd,72.16
2022-11-14T11:58:00,atd,72.17
2022-11-14T11:59:00,atd,69.08
2022-11-14T12:00:00,atd,69.44
2022-11-14T12:01:00,atd,78.23
2022-11-14T12:02:00,atd,87.56
2022-11-14T12:03:00,atd,79.66
2022-11-14T12:04:00,atd,77.07
2022-11-14T12:05:00,atd,87.80
2022-11-14T12:06:00,atd,99.27
2022-11-14T12:07:00,atd,80.44
2022-11-14T12:08:00,atd,80.98
2022-11-14T12:09:00,atd,74.93
2022-11-14T12:10:00,atd,78.48
2022-11-14T12:11:00,atd,74.96
2022-11-14T12:12:00,atd,75.64
2022-11-14T12:13:00,atd,76.90
2022-11-14T12:14:00,atd,72.76
2022-11-14T12:15:00,atd,81.23
2022-11-14T12:16:00,atd,84.02
2022-11-14T12:17:00,atd,73.66
2022-11-14T12:18:00,atd,77.09
2022-11-14T12:19:00,atd,67.94
2022-11-14T12:20:00,atd,62.09
2022-11-14T12:21:00,atd,62.12
2022-11-14T12:22:00,atd,67.89
2022-11-14T12:23:00,atd,59.41
2022-11-14T12:24:00,atd,56.66
2022-11-14T12:25:00,atd,64.31
2022-11-14T12:26:00,atd,64.87
2022-11-14T12:27:00,atd,56.00
2022-11-14T12:28:00,atd,65.29
2022-11-14T12:29:00,atd,60.51
2022-11-14T12:30:00,atd,55.89
2022-11-14T12:31:00,atd,63.67
2022-11-14T12:32:00,atd,62.73
2022-11-14T12:33:00,atd,60.42
2022-11-14T12:34:00,atd,58.36
2022-11-14T12:35:00,atd,60.11
2022-11-14T12:36:00,atd,66.24
2022-11-14T12:37:00,atd,59.41
2022-11-14T12:38:00,atd,57.50
2022-11-14T12:39:00,atd,62.16
2022-11-14T12:40:00,atd,55.55
2022-11-14T12:41:00,atd,55.47
2022-11-14T12:42:00,atd,56.79
2022-11-14T12:43:00,atd,60.93
2022-11-14T12:44:00,atd,62.85
2022-11-14T12:45:00,atd,55.58
2022-11-14T12:46:00,atd,53.27
2022-11-14T12:47:00,atd,58.02
2022-11-14T12:48:00,atd,62.26
2022-11-14T12:49:00,atd,58.97
2022-11-14T12:50:00,atd,59.20
2022-11-14T12:51:00,atd,60.41
2022-11-14T12:52:00,atd,60.81
2022-11-14T12:53:00,atd,59.52
2022-11-14T12:54:00,atd,58.27
2022-11-14T12:55:00,atd,70.50
2022-11-14T12:56:00,atd,69.89
2022-11-14T12:57:00,atd,56.38
2022-11-14T12:58:00,atd,56.00
2022-11-14T12:59:00,atd,61.62
2022-11-14T13:00:00,atd,65.17
2022-11-14T13:01:00,atd,70.06
2022-11-14T13:02:00,atd,66.83
2022-11-14T13:03:00,atd,66.61
2022-11-14T13:04:00,atd,61.18
2022-11-14T13:05:00,atd,60.07
2022-11-14T13:06:00,atd,63.77
2022-11-14T13:07:00,atd,69.92
2022-11-14T13:08:00,atd,70.19
2022-11-14T13:09:00,atd,73.10
2022-11-14T13:10:00,atd,63.98
2022-11-14T13:11:00,atd,70.97
2022-11-14T13:12:00,atd,89.74
2022-11-14T13:13:00,atd,81.02
2022-11-14T13:14:00,atd,83.93
2022-11-14T13:15:00,atd,74.17
2022-11-14T13:16:00,atd,65.22
2022-11-14T13:17:00,atd,71.23
2022-11-14T13:18:00,atd,73.02